• In Uzbekistan
  • List of Countries
  • For 7 days
  • Water Temperature
  • Weather Map
  • Weather Widgets
  • user-avatar
    Login

    Hourly Weather Armagh

    Today, 22 August, Thursday

    Time Temperature Precipitation Wind Pressure Humidity
    00:00 +12°C° 0 mm 3 mps 757 mmHg 98%
    01:00 +12°C° 0.1 mm 3 mps 756 mmHg 98%
    02:00 +12°C° 0.1 mm 3 mps 756 mmHg 98%
    03:00 +12°C° 0.1 mm 3 mps 756 mmHg 97%
    04:00 +12°C° 0 mm 4 mps 756 mmHg 97%
    05:00 +12°C° 0 mm 4 mps 756 mmHg 97%
    06:00 +12°C° 0 mm 3 mps 756 mmHg 98%
    07:00 +13°C° 0.1 mm 4 mps 756 mmHg 97%
    08:00 +14°C° 0.1 mm 4 mps 756 mmHg 96%
    09:00 +15°C° 0.1 mm 5 mps 756 mmHg 95%
    10:00 +15°C° 0.6 mm 5 mps 756 mmHg 96%
    11:00 +15°C° 0.6 mm 6 mps 756 mmHg 96%
    12:00 +15°C° 0.6 mm 6 mps 756 mmHg 96%
    13:00 +16°C° 0.2 mm 6 mps 756 mmHg 95%
    14:00 +16°C° 0.2 mm 6 mps 756 mmHg 94%
    15:00 +17°C° 0.2 mm 7 mps 757 mmHg 93%
    16:00 +17°C° 0.1 mm 6 mps 757 mmHg 92%
    17:00 +16°C° 0.1 mm 6 mps 757 mmHg 91%
    18:00 +16°C° 0.1 mm 6 mps 757 mmHg 90%
    19:00 +16°C° 0 mm 5 mps 758 mmHg 90%
    20:00 +15°C° 0 mm 5 mps 758 mmHg 91%
    21:00 +15°C° 0 mm 5 mps 759 mmHg 91%
    22:00 +15°C° 0 mm 5 mps 759 mmHg 92%
    23:00 +14°C° 0 mm 5 mps 759 mmHg 92%

    Tomorrow, 23 August, Friday

    Time Temperature Precipitation Wind Pressure Humidity
    00:00 +14°C° 0 mm 5 mps 759 mmHg 93%
    01:00 +14°C° 0 mm 5 mps 759 mmHg 94%
    02:00 +13°C° 0 mm 4 mps 759 mmHg 95%
    03:00 +13°C° 0 mm 4 mps 759 mmHg 96%
    04:00 +13°C° 0 mm 4 mps 759 mmHg 96%
    05:00 +13°C° 0 mm 3 mps 759 mmHg 96%
    06:00 +13°C° 0 mm 3 mps 759 mmHg 96%
    07:00 +14°C° 0 mm 4 mps 759 mmHg 92%
    08:00 +15°C° 0 mm 4 mps 759 mmHg 87%
    09:00 +18°C° 0 mm 4 mps 760 mmHg 82%
    10:00 +19°C° 0 mm 5 mps 759 mmHg 79%
    11:00 +20°C° 0 mm 5 mps 759 mmHg 76%
    12:00 +21°C° 0 mm 5 mps 759 mmHg 73%
    13:00 +21°C° 0 mm 5 mps 759 mmHg 73%
    14:00 +21°C° 0 mm 5 mps 759 mmHg 74%
    15:00 +21°C° 0 mm 5 mps 759 mmHg 74%
    16:00 +21°C° 0 mm 5 mps 758 mmHg 77%
    17:00 +20°C° 0 mm 5 mps 758 mmHg 80%
    18:00 +19°C° 0 mm 4 mps 758 mmHg 83%
    19:00 +18°C° 0 mm 4 mps 758 mmHg 85%
    20:00 +15°C° 0 mm 4 mps 758 mmHg 87%
    21:00 +14°C° 0 mm 4 mps 758 mmHg 88%
    22:00 +13°C° 0 mm 3 mps 758 mmHg 89%
    23:00 +13°C° 0 mm 3 mps 758 mmHg 90%

    Day after tomorrow, 24 August, Saturday

    Time Temperature Precipitation Wind Pressure Humidity
    00:00 +12°C° 0 mm 3 mps 757 mmHg 91%
    01:00 +13°C° 0 mm 2 mps 757 mmHg 91%
    02:00 +13°C° 0 mm 2 mps 757 mmHg 91%
    03:00 +13°C° 0 mm 2 mps 757 mmHg 91%
    04:00 +13°C° 0 mm 2 mps 757 mmHg 93%
    05:00 +13°C° 0 mm 2 mps 756 mmHg 94%
    06:00 +13°C° 0 mm 2 mps 756 mmHg 95%
    07:00 +15°C° 0 mm 2 mps 756 mmHg 90%
    08:00 +16°C° 0 mm 3 mps 756 mmHg 86%
    09:00 +18°C° 0 mm 3 mps 757 mmHg 82%
    10:00 +19°C° 0 mm 3 mps 757 mmHg 79%
    11:00 +20°C° 0 mm 4 mps 756 mmHg 77%
    12:00 +21°C° 0 mm 4 mps 756 mmHg 75%
    13:00 +21°C° 0 mm 4 mps 756 mmHg 74%
    14:00 +21°C° 0 mm 4 mps 756 mmHg 74%
    15:00 +21°C° 0 mm 4 mps 756 mmHg 74%
    16:00 +20°C° 0 mm 3 mps 756 mmHg 76%
    17:00 +19°C° 0 mm 3 mps 755 mmHg 79%
    18:00 +18°C° 0 mm 2 mps 755 mmHg 82%
    19:00 +17°C° 0 mm 2 mps 755 mmHg 82%
    20:00 +16°C° 0 mm 1 mps 755 mmHg 83%
    21:00 +16°C° 0 mm 1 mps 756 mmHg 83%
    22:00 +15°C° 0 mm 1 mps 755 mmHg 83%
    23:00 +15°C° 0 mm 1 mps 755 mmHg 83%

    25 August, Sunday

    Time Temperature Precipitation Wind Pressure Humidity
    00:00 +15°C° 0 mm 1 mps 755 mmHg 84%
    01:00 +15°C° 0 mm 1 mps 755 mmHg 86%
    02:00 +15°C° 0 mm 1 mps 755 mmHg 88%
    03:00 +15°C° 0 mm 1 mps 755 mmHg 90%
    04:00 +15°C° 0 mm 1 mps 755 mmHg 92%
    05:00 +14°C° 0 mm 1 mps 755 mmHg 93%
    06:00 +13°C° 0 mm 0 mps 755 mmHg 94%
    07:00 +16°C° 0 mm 1 mps 756 mmHg 90%
    08:00 +19°C° 0 mm 1 mps 756 mmHg 86%
    09:00 +20°C° 0 mm 1 mps 756 mmHg 83%
    10:00 +20°C° 0 mm 2 mps 756 mmHg 79%
    11:00 +23°C° 0 mm 2 mps 756 mmHg 76%
    12:00 +24°C° 0 mm 2 mps 757 mmHg 72%
    13:00 +24°C° 0 mm 2 mps 757 mmHg 73%
    14:00 +24°C° 0 mm 2 mps 757 mmHg 73%
    15:00 +24°C° 0 mm 2 mps 757 mmHg 73%
    16:00 +23°C° 0 mm 2 mps 757 mmHg 77%
    17:00 +23°C° 0 mm 2 mps 757 mmHg 80%
    18:00 +21°C° 0 mm 2 mps 757 mmHg 84%
    19:00 +20°C° 0 mm 1 mps 757 mmHg 87%
    20:00 +19°C° 0 mm 1 mps 757 mmHg 89%
    21:00 +15°C° 0 mm 0 mps 758 mmHg 92%
    22:00 +16°C° 0 mm 1 mps 757 mmHg 93%
    23:00 +15°C° 0 mm 1 mps 757 mmHg 93%

    26 August, Monday

    Time Temperature Precipitation Wind Pressure Humidity
    00:00 +15°C° 0 mm 1 mps 757 mmHg 94%
    01:00 +14°C° 0 mm 0 mps 757 mmHg 94%
    02:00 +14°C° 0 mm 0 mps 757 mmHg 95%
    03:00 +13°C° 0 mm 0 mps 756 mmHg 95%
    04:00 +13°C° 0 mm 0 mps 757 mmHg 96%
    05:00 +15°C° 0 mm 1 mps 757 mmHg 96%
    06:00 +15°C° 0 mm 1 mps 757 mmHg 96%
    07:00 +16°C° 0 mm 1 mps 757 mmHg 93%
    08:00 +19°C° 0 mm 1 mps 757 mmHg 90%
    09:00 +19°C° 0 mm 2 mps 757 mmHg 86%
    10:00 +20°C° 0 mm 2 mps 757 mmHg 83%
    11:00 +20°C° 0 mm 3 mps 757 mmHg 80%
    12:00 +21°C° 0 mm 3 mps 757 mmHg 77%
    13:00 +21°C° 0 mm 3 mps 757 mmHg 76%
    14:00 +21°C° 0 mm 3 mps 757 mmHg 75%
    15:00 +21°C° 0 mm 3 mps 757 mmHg 74%
    16:00 +21°C° 0 mm 3 mps 757 mmHg 78%
    17:00 +20°C° 0 mm 2 mps 756 mmHg 82%
    18:00 +19°C° 0 mm 2 mps 756 mmHg 85%
    19:00 +19°C° 0 mm 1 mps 756 mmHg 88%
    20:00 +18°C° 0 mm 1 mps 756 mmHg 90%
    21:00 +15°C° 0 mm 1 mps 756 mmHg 93%
    22:00 +15°C° 0 mm 1 mps 756 mmHg 93%
    23:00 +15°C° 0 mm 1 mps 756 mmHg 94%

    27 August, Tuesday

    Time Temperature Precipitation Wind Pressure Humidity
    00:00 +14°C° 0 mm 1 mps 755 mmHg 94%
    01:00 +14°C° 0 mm 1 mps 755 mmHg 95%
    02:00 +14°C° 0 mm 1 mps 755 mmHg 95%
    03:00 +14°C° 0 mm 1 mps 754 mmHg 95%
    04:00 +14°C° 0 mm 1 mps 754 mmHg 95%
    05:00 +14°C° 0 mm 1 mps 754 mmHg 94%
    06:00 +14°C° 0 mm 1 mps 754 mmHg 94%
    07:00 +15°C° 0 mm 1 mps 754 mmHg 91%
    08:00 +16°C° 0 mm 1 mps 754 mmHg 88%
    09:00 +18°C° 0 mm 1 mps 754 mmHg 85%
    10:00 +19°C° 0 mm 1 mps 754 mmHg 79%
    11:00 +19°C° 0 mm 2 mps 754 mmHg 73%
    12:00 +20°C° 0 mm 2 mps 754 mmHg 68%
    13:00 +21°C° 0 mm 2 mps 753 mmHg 69%
    14:00 +21°C° 0 mm 2 mps 753 mmHg 70%
    15:00 +21°C° 0 mm 3 mps 753 mmHg 71%
    16:00 +20°C° 0 mm 3 mps 753 mmHg 77%
    17:00 +19°C° 0 mm 2 mps 753 mmHg 82%
    18:00 +17°C° 0 mm 2 mps 753 mmHg 88%
    19:00 +17°C° 0 mm 2 mps 753 mmHg 90%
    20:00 +16°C° 0 mm 2 mps 753 mmHg 92%
    21:00 +15°C° 0 mm 2 mps 753 mmHg 94%
    22:00 +14°C° 0.1 mm 2 mps 753 mmHg 93%
    23:00 +14°C° 0.1 mm 2 mps 753 mmHg 92%
    Show more